W9LRT-WX Weather Reports


time (UTC)temp
F
wind
direction
speed
knots
gust
knots
rain 1hr
in
rain 24hr
in
rain mn
in
humidity
%
barometer
mb
20260504220555 74 0 13.0 32.2 0.00 0.00 0.00 51 999.4
20260504215056 75 0 14.8 32.2 0.00 0.00 0.00 51 999.4
20260504213556 76 0 12.2 32.2 0.00 0.00 0.00 48 999.3
20260504212052 76 184 14.8 32.2 0.00 0.00 0.00 48 999.4
20260504210553 77 0 11.3 27.8 0.00 0.00 0.00 48 999.3
20260504205052 77 0 13.0 27.8 0.00 0.00 0.00 47 999.3
20260504203553 77 0 11.3 27.8 0.00 0.00 0.00 48 999.1
20260504202052 77 0 13.0 27.8 0.00 0.00 0.00 46 999.1
20260504200553 77 0 13.9 27.8 0.00 0.00 0.00 47 999.2
20260504195053 76 0 10.4 27.8 0.00 0.00 0.00 48 999.4
20260504193554 76 0 11.3 27.8 0.00 0.00 0.00 48 999.6
20260504192052 76 0 7.8 27.8 0.00 0.00 0.00 51 999.6
20260504190553 75 0 13.0 27.8 0.00 0.00 0.00 53 999.9
20260504185050 75 0 11.3 24.3 0.00 0.00 0.00 53 1000.1
20260504183550 74 0 12.2 24.3 0.00 0.00 0.00 56 1000.4
20260504182048 74 0 10.4 24.3 0.00 0.00 0.00 55 1000.7
20260504180549 73 0 10.4 24.3 0.00 0.00 0.00 59 1000.9
20260504175048 72 0 10.4 24.3 0.00 0.00 0.00 58 1001.2
20260504173548 72 0 12.2 24.3 0.00 0.00 0.00 58 1001.3
20260504172048 72 0 11.3 23.5 0.00 0.00 0.00 56 1001.4
20260504170545 71 0 11.3 21.7 0.00 0.00 0.00 57 1001.5
20260504150537 66 0 7.0 13.9 0.00 0.00 0.00 60 1003.2
20260504140535 62 0 6.1 12.2 0.00 0.00 0.00 68 1003.7
20260504130529 56 0 7.0 12.2 0.00 0.00 0.00 75 1004.1
20260504110529 51 0 6.1 10.4 0.00 0.00 0.00 79 1004.3
20260504100529 51 0 5.2 13.0 0.00 0.00 0.00 79 1004.1
20260504080531 51 0 6.1 12.2 0.00 0.00 0.00 77 1004.4
20260504050525 51 178 4.3 7.0 0.00 0.00 0.00 78 1006.5
20260504045025 51 0 3.5 7.8 0.00 0.00 0.00 78 1006.6
20260504043521 51 170 3.5 7.8 0.00 0.00 0.00 78 1006.7
20260504042021 51 178 3.5 7.0 0.00 0.00 0.00 78 1006.8
20260504040522 51 0 4.3 8.7 0.00 0.00 0.00 77 1006.7
20260504035023 51 198 5.2 8.7 0.00 0.00 0.00 77 1006.8
20260504033521 51 0 5.2 10.4 0.00 0.00 0.00 77 1006.9
20260504032021 52 0 5.2 9.6 0.00 0.00 0.00 76 1007.0
20260504030522 52 164 5.2 9.6 0.00 0.00 0.00 76 1007.0
20260504025022 51 0 4.3 10.4 0.00 0.00 0.00 77 1007.1
20260504023521 52 0 4.3 7.8 0.00 0.00 0.00 77 1006.9
20260504022021 51 185 4.3 7.8 0.00 0.00 0.00 78 1007.0
20260504020522 51 0 4.3 8.7 0.00 0.00 0.00 81 1007.1
20260504015023 51 0 3.5 6.1 0.00 0.00 0.00 83 1007.1
20260504013522 51 169 2.6 7.0 0.00 0.00 0.00 83 1007.1
20260504012022 51 0 3.5 7.0 0.00 0.00 0.00 82 1007.2
20260504010522 52 0 4.3 9.6 0.00 0.00 0.00 82 1007.1
20260504005021 53 146 5.2 9.6 0.00 0.00 0.00 82 1007.1
20260504003521 53 119 4.3 9.6 0.00 0.00 0.00 81 1007.1
20260504002017 53 0 6.1 12.2 0.00 0.00 0.00 79 1007.1
20260504000516 54 152 7.0 18.2 0.00 0.00 0.00 78 1007.4
20260503235015 54 204 5.2 18.2 0.00 0.00 0.00 78 1007.5
20260503233515 54 165 7.0 18.2 0.00 0.00 0.00 77 1007.8
20260503232014 54 0 7.0 18.2 0.00 0.00 0.00 77 1007.9
20260503230518 53 0 6.1 18.2 0.00 0.00 0.00 78 1008.1
20260503225009 53 157 8.7 18.2 0.00 0.00 0.00 76 1008.4
20260503223510 54 133 7.0 18.2 0.00 0.00 0.00 73 1008.5
20260503222008 53 138 7.0 17.4 0.00 0.00 0.00 75 1008.7